Weather reports worldwide

Advertisment
Fair Isle, United Kingdom (3008): temperature & dewpoint: 30.05.2020 07:00:00 - 05.06.2020 07:00:00 (BST)Fair Isle, United Kingdom (3008): temperature -20cm & temperature -100cm: 30.05.2020 07:00:00 - 05.06.2020 07:00:00 (BST)Fair Isle, United Kingdom (3008): wind speed & gusts: 30.05.2020 07:00:00 - 05.06.2020 07:00:00 (BST)Fair Isle, United Kingdom (3008): wind direction: 30.05.2020 07:00:00 - 05.06.2020 07:00:00 (BST)Fair Isle, United Kingdom (3008): reduced air pressure: 30.05.2020 07:00:00 - 05.06.2020 07:00:00 (BST)Fair Isle, United Kingdom (3008): visibility: 30.05.2020 07:00:00 - 05.06.2020 07:00:00 (BST)Fair Isle, United Kingdom (3008): precipitation: 30.05.2020 07:00:00 - 05.06.2020 07:00:00 (BST)
Date & Time tt [°C] td [°C] tt -20cm [°C] tt -100cm [°C] ff [km/h] ff [kn] fx [km/h] fx [kn] dd ppp [hPa] vv [km] rr [mm]
05.06.2020 07:00:00 7,4 - - - 28 15 46 25 NNW 991,1 23 -
05.06.2020 06:00:00 7,1 - - - 29 16 - - NNW 991,9 30 0,0
05.06.2020 05:00:00 7,2 - - - 31 17 - - NW 992,6 50 0,0
05.06.2020 04:00:00 7,3 - - - 31 17 46 25 NNW 993,3 30 0,0
05.06.2020 03:00:00 7,2 - - - 34 18 - - NNW 994,0 45 0,0
05.06.2020 02:00:00 7,3 - - - 26 14 46 25 NNW 994,9 35 0,0
05.06.2020 01:00:00 6,8 - - - 31 17 - - N 995,7 35 0,0
05.06.2020 00:00:00 7,2 - - - 22 12 - - NNW 996,5 40 0,2
04.06.2020 23:00:00 7,2 - - - 21 11 - - NNW 997,3 45 0,0
04.06.2020 22:00:00 7,3 - - - 16 9 - - NNW 997,8 50 0,0
04.06.2020 21:00:00 7,5 - - - 18 10 - - NW 998,3 30 0,0
04.06.2020 20:00:00 7,6 - - - 24 13 - - NW 998,7 35 0,0
04.06.2020 19:00:00 8,2 - - - 24 13 - - NNW 999,2 45 0,0
04.06.2020 18:00:00 8,6 - - - 22 12 - - NNW 999,6 50 0,0
04.06.2020 17:00:00 8,0 - - - 22 12 - - NNW 1000,0 50 0,0
04.06.2020 16:00:00 8,9 - - - 22 12 - - NW 1000,7 30 0,0
04.06.2020 15:00:00 9,3 - - - 22 12 - - NNW 1001,1 45 0,0
04.06.2020 14:00:00 9,6 - - - 22 12 - - NNW 1001,5 29 0,0
04.06.2020 13:00:00 8,5 - - - 21 11 - - NNW 1001,9 50 0,0
04.06.2020 12:00:00 8,4 - - - 21 11 - - NNW 1002,3 35 0,0
04.06.2020 11:00:00 8,3 - - - 21 11 - - NNW 1002,4 18 0,4
04.06.2020 10:00:00 8,3 - 11,0 10,0 21 11 - - NNW 1003,0 30 0,2
04.06.2020 09:00:00 7,3 - - - 21 11 - - NNW 1003,6 35 0,0
04.06.2020 08:00:00 8,3 - - - 24 13 - - NNW 1003,9 50 0,0
04.06.2020 07:00:00 7,0 - - - 21 11 - - N 1004,6 35 0,0
04.06.2020 06:00:00 7,2 - - - 21 11 - - NNW 1005,1 50 0,0
04.06.2020 05:00:00 6,9 - - - 22 12 - - NNW 1005,8 45 0,0
04.06.2020 04:00:00 6,9 - - - 21 11 - - NNW 1006,5 50 0,0
04.06.2020 03:00:00 6,8 - - - 21 11 - - NNW 1007,3 45 0,0
04.06.2020 02:00:00 6,7 - - - 21 11 - - NNW 1008,3 21 0,0
04.06.2020 01:00:00 6,9 - - - 22 12 - - NNW 1009,2 40 0,0
04.06.2020 00:00:00 6,9 - - - 21 11 - - NNW 1009,9 45 0,0
03.06.2020 23:00:00 7,0 - - - 21 11 - - NNW 1010,9 45 0,0
03.06.2020 22:00:00 7,0 - - - 22 12 - - NNW 1011,7 50 0,0
03.06.2020 21:00:00 7,3 - - - 21 11 - - NNW 1012,5 40 0,0
03.06.2020 20:00:00 7,6 - - - 21 11 - - NNW 1012,9 40 0,0
03.06.2020 19:00:00 8,1 - - - 22 12 - - NNW 1013,3 45 0,0
03.06.2020 18:00:00 8,3 - - - 29 16 - - NNW 1014,0 45 0,0
03.06.2020 17:00:00 8,6 - - - 29 16 - - NNW 1014,9 35 0,0
03.06.2020 16:00:00 9,8 - - - 26 14 - - N 1015,1 23 0,0
03.06.2020 15:00:00 9,9 - - - 26 14 - - NNW 1015,4 30 0,0
03.06.2020 14:00:00 8,6 - - - 18 10 - - N 1016,0 30 0,0
03.06.2020 13:00:00 9,1 - - - 24 13 - - N 1016,3 22 0,0
03.06.2020 12:00:00 7,8 - - - 28 15 46 25 N 1016,6 8 0,0
03.06.2020 11:00:00 8,7 - - - 29 16 46 25 N 1016,8 27 0,0
03.06.2020 10:00:00 8,3 - 11,4 10,0 31 17 - - N 1017,1 20 0,0
03.06.2020 09:00:00 8,2 - - - 31 17 48 26 N 1017,0 19 0,0
03.06.2020 08:00:00 8,0 - - - 35 19 52 28 N 1017,1 20 0,0
03.06.2020 07:00:00 7,8 - - - 34 18 52 28 N 1017,2 19 0,0
03.06.2020 06:00:00 8,0 - - - 26 14 - - N 1017,3 19 0,0
03.06.2020 05:00:00 8,0 - - - 24 13 - - NNW 1017,4 40 0,0
03.06.2020 04:00:00 7,9 - - - 24 13 - - NNW 1017,8 26 0,0
03.06.2020 03:00:00 7,8 - - - 26 14 - - N 1018,3 45 0,0
03.06.2020 02:00:00 7,9 - - - 26 14 - - N 1018,8 45 0,0
03.06.2020 01:00:00 7,9 - - - 28 15 - - N 1019,2 35 0,0
03.06.2020 00:00:00 8,0 - - - 29 16 - - N 1019,5 45 0,0
02.06.2020 23:00:00 7,8 - - - 29 16 - - N 1019,8 45 0,0
02.06.2020 22:00:00 8,1 - - - 26 14 - - N 1019,7 40 0,0
02.06.2020 21:00:00 8,0 - - - 26 14 - - N 1020,1 16 0,0
02.06.2020 20:00:00 8,0 - - - 29 16 - - N 1020,0 40 0,0
02.06.2020 19:00:00 8,6 - - - 28 15 - - NNE 1020,0 23 0,0
02.06.2020 18:00:00 8,4 - - - 26 14 - - NNE 1020,2 20 0,0
02.06.2020 17:00:00 8,9 - - - 24 13 - - NNE 1020,4 30 0,2
02.06.2020 16:00:00 8,6 - - - 24 13 - - N 1020,9 17 0,2
02.06.2020 15:00:00 8,7 - - - 24 13 - - NNE 1021,1 12 0,8
02.06.2020 14:00:00 8,9 - - - 24 13 - - NNE 1021,2 10 0,8
02.06.2020 13:00:00 9,2 - - - 26 14 - - NNE 1021,3 13 0,2
02.06.2020 12:00:00 9,3 - - - 26 14 - - NNE 1021,5 11 0,2
02.06.2020 11:00:00 9,4 - - - 18 10 - - NNE 1021,9 13 -
02.06.2020 10:00:00 9,3 9,3 11,7 9,9 16 9 - - NE 1022,1 6 0,8
02.06.2020 09:00:00 9,2 9,2 - - 28 15 - - NE 1021,8 1,8 -
02.06.2020 08:00:00 9,2 9,2 - - 24 13 - - NE 1021,9 1,2 0,2
02.06.2020 07:00:00 9,3 9,3 - - 16 9 - - NNE 1022,5 4,0 0,0
02.06.2020 06:00:00 8,9 8,9 - - 16 9 - - N 1022,9 0,6 0,2
02.06.2020 05:00:00 8,6 8,5 - - 24 13 - - NNE 1022,8 0,7 0,0
02.06.2020 04:00:00 8,6 8,5 - - 18 10 - - NNE 1023,1 0,1 0,0
02.06.2020 03:00:00 8,5 8,3 - - 15 8 - - N 1023,6 0,2 0,0
02.06.2020 02:00:00 9,2 8,9 - - 9 5 - - NNW 1024,1 0,4 0,0
02.06.2020 01:00:00 9,1 8,6 - - 8 4 - - N 1024,5 20 0,0
02.06.2020 00:00:00 9,3 8,9 - - 5 3 - - NW 1025,0 16 0,0
01.06.2020 23:00:00 9,2 8,7 - - 4 2 - - W 1025,2 1,8 0,0
01.06.2020 22:00:00 9,9 9,3 - - 4 2 - - SE 1025,4 0,4 0,0
01.06.2020 21:00:00 10,3 9,5 - - 4 2 - - S 1025,5 10 0,0
01.06.2020 20:00:00 11,2 9,8 - - 5 3 - - SSE 1025,4 24 0,0
01.06.2020 19:00:00 11,8 10,4 - - 5 3 - - SE 1025,8 24 0,0
01.06.2020 18:00:00 12,0 10,7 - - 11 6 - - SW 1025,9 30 0,0
01.06.2020 17:00:00 11,8 10,4 - - 15 8 - - SSW 1026,4 35 0,0
01.06.2020 16:00:00 12,3 11,3 - - 18 10 - - S 1026,7 30 0,0
01.06.2020 15:00:00 12,1 11,5 - - 15 8 - - SSE 1027,1 23 0,0
01.06.2020 14:00:00 10,8 10,5 - - 16 9 - - SSE 1027,2 5 0,0
01.06.2020 13:00:00 10,1 10,0 - - 18 10 - - S 1027,2 0,8 0,0
01.06.2020 12:00:00 10,0 10,0 - - 21 11 - - S 1027,4 2,3 0,0
01.06.2020 11:00:00 9,7 9,7 - - 22 12 - - S 1027,2 0,7 0,0
01.06.2020 10:00:00 9,6 9,6 11,7 9,7 16 9 - - SSE 1027,4 0,1 0,0
01.06.2020 09:00:00 9,4 9,4 - - 18 10 - - SSE 1027,5 0,1 0,0
01.06.2020 08:00:00 9,2 9,2 - - 22 12 - - SSE 1027,4 0,1 0,0
01.06.2020 07:00:00 8,8 8,7 - - 15 8 - - SE 1027,0 0,1 0,0
01.06.2020 06:00:00 9,0 8,9 - - 16 9 - - SE 1026,8 0,1 0,0
01.06.2020 05:00:00 10,1 10,0 - - 21 11 - - SSE 1026,9 3,0 0,0
01.06.2020 04:00:00 10,1 9,9 - - 18 10 - - SE 1027,2 5 0,0
01.06.2020 03:00:00 9,8 9,6 - - 15 8 - - SE 1027,5 3,9 0,0
01.06.2020 02:00:00 9,9 9,6 - - 11 6 - - ESE 1027,8 4,0 0,0
01.06.2020 01:00:00 9,8 9,4 - - 8 4 - - ESE 1028,0 4,9 0,0
01.06.2020 00:00:00 9,9 9,5 - - 8 4 - - ESE 1028,2 7 0,0
31.05.2020 23:00:00 10,0 9,5 - - 8 4 - - ESE 1028,4 8 0,0
31.05.2020 22:00:00 10,2 9,4 - - 9 5 - - ESE 1028,3 12 0,0
31.05.2020 21:00:00 10,6 9,3 - - 5 3 - - ESE 1028,5 19 0,0
31.05.2020 20:00:00 11,2 9,6 - - 9 5 - - ESE 1028,5 35 0,0
31.05.2020 19:00:00 11,7 9,5 - - 9 5 - - ESE 1028,7 30 0,0
31.05.2020 18:00:00 12,1 8,7 - - 13 7 - - ESE 1028,7 45 0,0
31.05.2020 17:00:00 12,6 8,6 - - 11 6 - - ESE 1028,9 24 0,0
31.05.2020 16:00:00 12,3 8,9 - - 9 5 - - ESE 1029,5 28 0,0
31.05.2020 15:00:00 12,6 9,2 - - 9 5 - - SE 1029,8 25 0,0
31.05.2020 14:00:00 12,4 9,5 - - 11 6 - - SE 1029,9 17 0,0
31.05.2020 13:00:00 12,4 9,4 - - 11 6 - - SE 1029,8 20 0,0
31.05.2020 12:00:00 12,1 9,5 - - 11 6 - - SE 1029,7 29 0,0
31.05.2020 11:00:00 11,7 9,4 - - 16 9 - - SE 1030,0 26 0,0
31.05.2020 10:00:00 11,4 9,7 11,2 9,5 18 10 - - SE 1029,8 18 0,0
31.05.2020 09:00:00 10,9 9,7 - - 16 9 - - SE 1029,7 28 0,0
31.05.2020 08:00:00 10,4 9,4 - - 13 7 - - SE 1029,7 40 0,0
31.05.2020 07:00:00 10,0 9,3 - - 16 9 - - SE 1029,5 20 0,0
31.05.2020 06:00:00 9,3 8,9 - - 16 9 - - SE 1029,2 27 0,0
31.05.2020 05:00:00 8,9 8,7 - - 21 11 - - SE 1029,3 13 0,0
31.05.2020 04:00:00 8,5 8,4 - - 16 9 - - SE 1029,4 10 0,0
31.05.2020 03:00:00 8,2 8,0 - - 15 8 - - SE 1029,4 4,9 0,0
31.05.2020 02:00:00 8,2 7,9 - - 15 8 - - ESE 1029,6 0,1 0,0
31.05.2020 01:00:00 8,5 8,2 - - 15 8 - - SE 1029,6 9 0,0
31.05.2020 00:00:00 8,4 8,0 - - 15 8 - - SE 1029,6 0,1 0,0
30.05.2020 23:00:00 9,3 8,5 - - 16 9 - - SE 1029,3 13 0,0
30.05.2020 22:00:00 9,3 8,2 - - 15 8 - - ESE 1029,2 21 0,0
30.05.2020 21:00:00 9,8 8,5 - - 15 8 - - SE 1028,9 17 0,0
30.05.2020 20:00:00 10,0 8,6 - - 16 9 - - SE 1028,7 26 0,0
30.05.2020 19:00:00 10,4 8,6 - - 21 11 - - SE 1028,8 19 0,0
30.05.2020 18:00:00 10,6 8,8 - - 24 13 - - SE 1028,8 21 0,0
30.05.2020 17:00:00 11,4 9,7 - - 16 9 - - SE 1029,0 23 0,0
30.05.2020 16:00:00 11,3 9,5 - - 16 9 - - SE 1029,2 28 0,0
30.05.2020 15:00:00 11,4 9,5 - - 22 12 - - SE 1029,4 16 0,0
30.05.2020 14:00:00 11,9 9,7 - - 24 13 - - SE 1029,3 18 0,0
30.05.2020 13:00:00 11,6 9,5 - - 22 12 - - SE 1029,2 16 0,0
30.05.2020 12:00:00 11,4 9,4 - - 22 12 - - SE 1029,0 17 0,0
30.05.2020 11:00:00 11,5 9,4 - - 22 12 - - SE 1028,8 17 0,0
30.05.2020 10:00:00 11,1 9,1 11,0 9,4 22 12 - - SE 1028,6 13 0,0
30.05.2020 09:00:00 11,0 9,1 - - 21 11 - - SE 1028,3 15 0,0
30.05.2020 08:00:00 10,7 9,3 - - 22 12 - - SE 1028,1 18 0,0
30.05.2020 07:00:00 10,2 9,0 - - 21 11 - - SE 1027,8 17 0,0

tt = temperature
td = dewpoint
tt -20cm = temperature -20cm
tt -100cm = temperature -100cm
ff = wind speed
fx = gusts
dd = wind direction
ppp = reduced air pressure
vv = visibility
rr = precipitation

Next stations